Date,TemperatureHighF,TemperatureAvgF,TemperatureLowF,DewpointHighF,DewpointAvgF,DewpointLowF,HumidityHigh,HumidityAvg,HumidityLow,PressureMaxIn,PressureMinIn,WindSpeedMaxMPH,WindSpeedAvgMPH,GustSpeedMaxMPH,PrecipitationSumIn
2013-5-1,81.1,62.1,44.8,49.0,41.6,36.0,95,52,24,30.21,30.02,10,1,10,0.00
2013-5-2,84.3,65.0,47.0,58.0,46.4,40.0,87,54,28,30.21,30.08,10,2,13,0.00
2013-5-3,75.3,59.8,44.2,50.0,38.6,31.0,78,48,25,30.24,30.07,9,2,12,0.00
2013-5-4,79.9,61.1,43.8,57.5,47.4,42.0,100,65,33,30.09,29.94,9,1,9,0.00
2013-5-5,80.2,61.6,45.1,52.0,41.4,35.0,90,53,21,30.01,29.89,10,2,13,0.00
2013-5-6,80.2,60.8,44.5,52.0,38.9,23.0,96,51,14,29.97,29.82,12,1,12,0.00
2013-5-7,84.3,64.6,47.0,60.0,45.9,31.0,100,58,17,29.92,29.82,9,1,9,0.00
2013-5-8,78.9,63.1,52.2,67.0,58.1,49.0,100,86,46,29.92,29.77,9,1,9,0.16
2013-5-9,75.9,63.6,56.3,64.5,57.5,53.0,100,83,47,29.77,29.63,9,1,9,0.01
2013-5-10,77.7,62.3,54.3,67.5,59.5,54.0,100,92,58,29.76,29.54,12,1,12,0.00
2013-5-11,68.7,62.2,56.7,68.5,60.6,50.0,100,95,74,29.55,29.39,10,2,11,0.24
2013-5-12,61.1,53.2,44.1,54.0,43.2,31.0,100,71,34,29.52,29.39,12,1,13,0.00
2013-5-13,52.6,45.8,38.8,39.0,33.8,29.0,89,63,47,29.76,29.51,18,2,19,0.00
2013-5-14,61.0,46.0,31.2,44.0,35.5,28.0,100,69,36,29.83,29.73,12,1,12,0.00
2013-5-15,62.5,47.0,31.7,55.0,43.0,32.0,100,89,38,29.74,29.35,12,1,16,0.05
2013-5-16,78.6,59.9,45.1,55.0,45.9,37.0,100,66,25,29.62,29.35,18,3,20,0.00
2013-5-17,68.4,54.4,41.0,51.0,44.3,39.0,100,72,42,29.94,29.62,18,2,19,0.00
2013-5-18,76.3,57.0,36.8,54.5,43.8,37.0,100,68,28,30.06,29.94,8,1,9,0.00
2013-5-19,69.5,57.1,47.5,59.5,54.4,46.0,100,91,67,30.05,29.87,14,1,14,0.24
2013-5-20,78.5,63.7,55.6,72.3,62.2,56.0,100,95,69,29.88,29.73,9,2,12,0.00
2013-5-21,78.2,62.3,56.5,77.3,61.1,56.5,100,96,81,29.73,29.57,17,2,21,0.73
2013-5-22,77.7,66.9,56.7,76.0,66.3,56.5,100,98,84,29.64,29.52,12,1,12,0.04
2013-5-23,78.3,69.2,60.6,72.3,67.4,60.5,100,95,72,29.58,29.49,12,2,12,0.53
2013-5-24,61.1,49.3,43.7,61.0,49.3,44.0,100,100,96,29.74,29.45,22,5,24,0.68
2013-5-25,44.4,43.1,41.6,44.0,43.1,42.0,100,100,100,29.72,29.62,30,6,30,0.93
2013-5-26,50.4,45.0,39.2,50.0,44.5,39.0,100,98,82,29.82,29.57,20,3,23,0.14
2013-5-27,69.1,53.0,36.8,53.0,43.8,37.0,100,76,38,29.93,29.79,12,2,13,0.00
2013-5-28,73.5,57.0,37.5,57.5,49.2,38.0,100,78,39,29.99,29.85,8,1,9,0.00
2013-5-29,68.0,60.8,55.3,68.0,60.6,53.0,100,99,84,29.85,29.70,9,1,9,0.09
2013-5-30,89.6,73.2,60.4,75.0,65.5,60.0,100,80,42,29.88,29.76,9,1,12,0.00
2013-5-31,91.1,74.8,61.8,78.7,68.1,60.5,100,82,48,29.86,29.70,11,1,13,0.00